User: anonymous   Login
Location: Unspecified
(0.0000°N, 0.0000°E)
Time: 07:46:00
(UTC+00:00)
Language:

AUBIESAT-1 - Orbit

View from above orbital plane
View from above orbital plane
View from above satellite
View from above satellite

Ground track
Ground track

The orbit data is extracted from the following two-line orbital elements,

1 37854U 11061E   16151.51902207  .00004579  00000-0  25952-3 0  9997
2 37854 101.7046 185.2001 0173553 126.0393 235.7039 15.02081789249446
Epoch (UTC): 30 May 2016 12:27:23
Eccentricity: 0.0173553
inclination: 101.7046°
perigee height: 440 km
apogee height: 681 km
right ascension of ascending node: 185.2001°
argument of perigee: 126.0393°
revolutions per day: 15.02081789
mean anomaly at epoch: 235.7039°
orbit number at epoch: 24944

The dashed part of the orbit path shows where the satellite is in the earth's shadow,  

DLR